Starlink 32618

operational
NORAD ID: 62045 Int'l Des: 2024-216 Owner: SPXS Country: US Constellation: starlink
LEOCIRCULAR

About Starlink 32618

Description loading...

Live Position

Loading 3D Globe...

Upcoming Passes

Altitude History

Altitude vs Time

uPlot chart will show altitude changes over time

Two-Line Element Set

1 62045U 24216P 25258.97795578 .00022150 00000-0 81107-3 0 9991
2 62045 42.9993 163.1784 0001286 267.7887 92.2818 15.27617804 47155
Epoch: Sep 15, 2025 • Age: 33 hours

Current Status

Altitude 486.3 km
Velocity 7.63 km/s
Sub-Earth Point 40.95°N, 137.68°E
Launch Date Nov 21, 2024
Age 0.8 years
Type internet

Technical Details

Classification Payload
Mass 730.00 kg
Dry Mass 700.00 kg
Total Mass 730.00 kg
Length 0.30 m
Diameter 4.10 m
Span 29.00 m
Shape Box + pan
Manufacturer SPXS
Bus Type Starlink V2M
Phase Status In Orbit
Owner/State SPXS/US

Large Constellations

Loading constellations...